Weather History for Blythe, CA

Change the Weather History Date:

Tuesday, March 19, 2013

  Actual Average Record
Temperature  
Mean Temperature 74 °F -  
Max Temperature 89 °F 80 °F 95 °F (1997)
Min Temperature 59 °F 52 °F 39 °F (1977)
Cooling Degree Days 8    
Growing Degree Days 24 (Base 50)    
Moisture  
Dew Point 33 °F    
Average Humidity 26    
Maximum Humidity 46    
Minimum Humidity 9    
Precipitation  
Precipitation 0.00 in - - ()
Sea Level Pressure  
Sea Level Pressure 29.91 in    
Wind  
Wind Speed 6 mph (SSW)    
Max Wind Speed 13 mph    
Max Gust Speed 20 mph    
Visibility 10 miles    
Events      
Averages and records for this station are not official NWS values.
T = Trace of Precipitation, MM = Missing Value Source: NWS Daily Summary

Daily Weather History Graph

Daily Weather History Graph

Search for Another Location

Airport:

Trip Planner

Search our weather history database for the weather conditions in past years. The results will help you decide how hot, cold, wet, or windy it might be!

Date:

Astronomy

Mar. 19, 2013 Rise Set
Actual Time 6:43 AM PDT 6:49 PM PDT
Civil Twilight 6:18 AM PDT 7:14 PM PDT
Nautical Twilight 5:49 AM PDT 7:43 PM PDT
Astronomical Twilight 5:20 AM PDT 8:13 PM PDT
Moon 11:53 AM PDT (3/19) 1:24 AM PDT (3/19)
Length of Visible Light 12h 56m
Length of Day
12h 06m
Waxing Crescent, 51% of the Moon is Illuminated
Mar 19
Waxing Crescent
Mar 27
Full
Apr 2
Last Quarter
Apr 10
New
Apr 18
First Quarter

Hourly Weather History & Observations

Time (PDT) Temp. Dew Point Humidity Pressure Visibility Wind Dir Wind Speed Gust Speed Precip Events Conditions
12:52 AM 70.0 °F 36.0 °F 29% 29.87 in 10.0 mi SSE 5.8 mph - N/A   Clear
1:52 AM 66.0 °F 41.0 °F 40% 29.88 in 10.0 mi SSW 3.5 mph - N/A   Clear
2:52 AM 66.9 °F 39.0 °F 36% 29.86 in 10.0 mi South 9.2 mph - N/A   Clear
3:52 AM 64.9 °F 39.9 °F 40% 29.84 in 10.0 mi South 12.7 mph - N/A   Clear
4:52 AM 64.0 °F 39.9 °F 41% 29.86 in 10.0 mi SSW 10.4 mph - N/A   Clear
5:52 AM 61.0 °F 37.9 °F 42% 29.89 in 10.0 mi NNW 5.8 mph - N/A   Clear
6:52 AM 59.0 °F 37.9 °F 46% 29.91 in 10.0 mi Calm Calm - N/A   Clear
7:52 AM 62.1 °F 39.9 °F 44% 29.92 in 10.0 mi Variable 6.9 mph - N/A   Clear
8:52 AM 64.0 °F 41.0 °F 43% 29.95 in 10.0 mi East 4.6 mph - N/A   Clear
9:52 AM 72.0 °F 41.0 °F 33% 29.95 in 10.0 mi SSE 4.6 mph - N/A   Clear
10:52 AM 75.9 °F 33.1 °F 21% 29.95 in 10.0 mi SW 4.6 mph - N/A   Clear
11:52 AM 80.1 °F 30.9 °F 17% 29.95 in 10.0 mi WSW 4.6 mph - N/A   Clear
12:52 PM 84.9 °F 25.0 °F 11% 29.93 in 10.0 mi NNW 12.7 mph 19.6 mph N/A   Clear
1:52 PM 86.0 °F 24.1 °F 10% 29.91 in 10.0 mi North 9.2 mph - N/A   Clear
2:52 PM 88.0 °F 24.1 °F 10% 29.89 in 10.0 mi NW 12.7 mph - N/A   Clear
3:52 PM 86.0 °F 23.0 °F 10% 29.88 in 10.0 mi Variable 5.8 mph - N/A   Clear
4:52 PM 88.0 °F 23.0 °F 9% 29.88 in 10.0 mi North 6.9 mph - N/A   Clear
5:52 PM 84.9 °F 28.0 °F 13% 29.88 in 10.0 mi Calm Calm - N/A   Clear
6:52 PM 81.0 °F 30.9 °F 16% 29.90 in 10.0 mi SSE 5.8 mph - N/A   Clear
7:52 PM 77.0 °F 33.1 °F 20% 29.91 in 10.0 mi SSE 3.5 mph - N/A   Clear
8:52 PM 72.0 °F 32.0 °F 23% 29.92 in 10.0 mi Calm Calm - N/A   Clear
9:52 PM 68.0 °F 30.9 °F 25% 29.94 in 10.0 mi Calm Calm - N/A   Clear
10:52 PM 64.0 °F 28.9 °F 27% 29.96 in 10.0 mi North 4.6 mph - N/A   Clear
11:52 PM 64.0 °F 27.0 °F 25% 29.96 in 10.0 mi Calm Calm - N/A   Clear